Location: *
(48.8489°N, 2.3218°E)
Time: 19:03:55
(UTC+00:00)

Meteor 2-21 Rocket - Pass Details

Date: 23 August 2019
Orbit: 936 x 967 km, 82.5° (Epoch: 18 October)

Event Time Altitude Azimuth Distance (km) Brightness Sun altitude
Rises 20:30:53 0° 350° (N) 3,646 8.3 -15.2°
Reaches altitude 10° 20:33:23 10° 351° (N) 2,700 7.5 -15.5°
Maximum altitude 20:39:36 83° 80° (E) 975 4.4 -16.3°
Enters shadow 20:44:22 18° 168° (SSE) 2,173 5.9 -16.9°
